FW6381 Weather Reports


time (UTC)temp
F
wind
direction
speed
knots
gust
knots
rain 1hr
in
rain 24hr
in
rain mn
in
humidity
%
barometer
mb
20260505083503 57 180 5.2 12.2 0.00 0.05 0.02 91 1001.0
20260505083213 57 176 6.1 12.2 0.00 0.05 0.02 91 1001.0
20260505082503 57 168 5.2 12.2 0.00 0.05 0.02 92 1001.0
20260505082003 56 163 5.2 11.3 0.00 0.05 0.02 93 1001.0
20260505081714 56 161 5.2 11.3 0.00 0.05 0.02 93 1001.0
20260505081003 56 163 6.1 10.4 0.00 0.05 0.02 93 1001.3
20260505080503 56 165 6.1 10.4 0.00 0.05 0.02 94 1001.3
20260505080003 56 165 5.2 11.3 0.00 0.05 0.02 94 1001.3
20260505075503 56 164 5.2 11.3 0.00 0.05 0.02 94 1001.3
20260505075003 55 161 5.2 11.3 0.00 0.05 0.02 94 1001.4
20260505074503 55 162 5.2 11.3 0.00 0.05 0.02 94 1001.4
20260505074005 55 166 4.3 10.4 0.00 0.05 0.02 94 1001.4
20260505073503 55 174 4.3 10.4 0.00 0.05 0.02 94 1001.5
20260505073003 55 173 4.3 10.4 0.00 0.05 0.02 94 1001.5
20260505072504 55 173 4.3 10.4 0.00 0.05 0.02 94 1001.5
20260505072213 55 172 4.3 10.4 0.00 0.05 0.02 94 1001.5
20260505071503 55 162 4.3 10.4 0.00 0.05 0.02 94 1001.8
20260505071003 55 164 5.2 11.3 0.00 0.05 0.02 93 1001.7
20260505070503 55 164 6.1 11.3 0.00 0.05 0.02 93 1002.0
20260505070003 55 169 5.2 11.3 0.00 0.05 0.02 93 1002.0
20260505065505 55 171 4.3 11.3 0.00 0.05 0.02 93 1002.2
20260505065004 55 176 4.3 13.0 0.01 0.05 0.02 93 1002.1
20260505064715 55 185 4.3 13.0 0.01 0.05 0.02 93 1002.2
20260505064003 55 233 6.1 15.6 0.02 0.05 0.02 93 1002.6
20260505063503 56 249 7.0 15.6 0.02 0.05 0.02 93 1003.0
20260505063003 56 242 6.1 15.6 0.02 0.05 0.02 92 1003.9
20260505062503 56 238 5.2 13.0 0.02 0.05 0.02 92 1002.9
20260505062003 55 243 5.2 13.0 0.02 0.05 0.02 91 1003.0
20260505061503 56 237 5.2 11.3 0.02 0.05 0.02 91 1003.1
20260505061003 56 220 6.1 11.3 0.02 0.05 0.02 90 1002.8
20260505060715 56 217 6.1 11.3 0.02 0.05 0.02 90 1003.1
20260505060003 56 220 8.7 19.1 0.02 0.05 0.02 89 1002.9
20260505055713 56 221 9.6 20.0 0.02 0.05 0.02 88 1003.2
20260505055003 57 225 12.2 27.8 0.01 0.03 0.01 84 1003.3
20260505054503 58 226 15.6 32.2 0.00 0.02 0.00 81 1003.4
20260505054005 60 225 15.6 32.2 0.00 0.02 0.00 78 1003.5
20260505053715 60 224 13.9 30.4 0.00 0.02 0.00 78 1003.3
20260505053003 60 223 8.7 23.5 0.00 0.02 0.00 77 1003.1
20260505052503 60 226 8.7 20.9 0.00 0.02 0.00 77 1002.9
20260505052003 60 232 9.6 22.6 0.00 0.02 0.00 76 1002.9
20260505051713 61 232 10.4 25.2 0.00 0.02 0.00 75 1002.7
20260505051003 61 222 12.2 27.8 0.00 0.02 0.00 71 1002.9
20260505050503 62 229 13.9 32.2 0.00 0.02 0.00 70 1003.1
20260505041506 64 217 8.7 24.3 0.00 0.02 0.00 74 1002.6
20260505041003 64 210 11.3 24.3 0.00 0.02 0.00 72 1002.5
20260505040504 64 207 11.3 27.8 0.00 0.02 0.00 69 1002.4
20260505040004 64 205 9.6 27.8 0.00 0.02 0.00 69 1002.5
20260505035505 64 201 7.8 16.5 0.00 0.02 0.02 69 1002.6
20260505035003 64 195 6.1 15.6 0.00 0.02 0.02 70 1002.4
20260505034503 63 192 5.2 13.0 0.00 0.02 0.02 70 1002.3
20260505034003 63 194 5.2 13.0 0.00 0.02 0.02 71 1002.3
20260505033503 62 188 5.2 11.3 0.00 0.02 0.02 71 1002.2
20260505033003 62 185 4.3 11.3 0.01 0.02 0.02 71 1002.3
20260505032503 62 190 4.3 8.7 0.01 0.02 0.02 71 1002.4
20260505032003 61 206 3.5 8.7 0.01 0.02 0.02 71 1002.4
20260505031714 61 206 3.5 8.7 0.01 0.02 0.02 71 1002.6
20260505031005 61 189 2.6 10.4 0.02 0.02 0.02 71 1002.6
20260505030714 61 194 2.6 10.4 0.02 0.02 0.02 71 1002.7
20260505030003 60 208 2.6 7.0 0.02 0.02 0.02 70 1002.8
20260505025503 60 218 2.6 10.4 0.02 0.02 0.02 70 1002.8
20260505025004 60 221 3.5 11.3 0.02 0.02 0.02 70 1002.9
20260505024503 60 216 4.3 12.2 0.02 0.02 0.02 70 1003.0
20260505024003 60 202 4.3 14.8 0.02 0.02 0.02 69 1003.0
20260505023505 60 194 5.2 14.8 0.02 0.02 0.02 70 1002.9
20260505023005 60 193 5.2 12.2 0.01 0.01 0.01 71 1002.9
20260505022503 60 179 7.0 17.4 0.01 0.01 0.01 70 1002.9
20260505022003 60 187 9.6 24.3 0.01 0.01 0.01 69 1002.8
20260505021503 61 202 7.0 24.3 0.01 0.01 0.01 66 1003.0
20260505021003 60 194 3.5 23.5 0.00 0.00 0.00 62 1003.7
20260505020503 60 168 3.5 7.0 0.00 0.00 0.00 58 1003.4
20260505020003 60 166 3.5 7.8 0.00 0.00 0.00 56 1003.0
20260505015504 60 171 3.5 7.8 0.00 0.00 0.00 56 1002.7
20260505015004 60 177 3.5 7.8 0.00 0.00 0.00 56 1002.8
20260505014503 60 180 3.5 7.8 0.00 0.00 0.00 56 1002.8
20260505014005 60 181 2.6 7.0 0.00 0.00 0.00 56 1002.8
20260505013503 60 174 2.6 5.2 0.00 0.00 0.00 56 1002.7
20260505013004 60 170 3.5 10.4 0.00 0.00 0.00 57 1002.7
20260505012504 60 172 4.3 10.4 0.00 0.00 0.00 56 1002.9
20260505012003 60 188 3.5 7.8 0.00 0.00 0.00 57 1003.0
20260505011503 60 192 3.5 7.0 0.00 0.00 0.00 57 1003.1
20260505011003 60 179 3.5 8.7 0.00 0.00 0.00 56 1003.0
20260505010503 60 193 4.3 8.7 0.00 0.00 0.00 56 1002.9
20260505010003 60 184 4.3 11.3 0.00 0.00 0.00 57 1002.9
20260505005505 61 167 4.3 10.4 0.00 0.00 0.00 56 1002.8
20260505005004 61 179 4.3 7.8 0.00 0.00 0.00 55 1002.9
20260505004715 62 180 4.3 7.0 0.00 0.00 0.00 54 1002.9
20260505004003 62 177 4.3 11.3 0.00 0.00 0.00 53 1002.9
20260505003503 63 195 3.5 10.4 0.00 0.00 0.00 52 1003.0
20260505003003 64 190 3.5 7.8 0.00 0.00 0.00 52 1003.0
20260505002503 64 171 4.3 7.8 0.00 0.00 0.00 50 1003.0
20260505002003 65 180 4.3 7.8 0.00 0.00 0.00 48 1003.0
20260505001715 65 186 3.5 7.8 0.00 0.00 0.00 47 1003.0
20260505001214 66 198 2.6 7.0 0.00 0.00 0.00 47 1002.9
20260505000503 67 192 3.5 7.0 0.00 0.00 0.00 46 1003.0
20260505000005 67 183 4.3 7.8 0.00 0.00 0.00 45 1003.0
20260504235503 68 186 4.3 7.8 0.00 0.00 0.00 45 1002.9
20260504235006 69 214 5.2 13.0 0.00 0.00 0.00 44 1003.0
20260504234504 69 224 6.1 13.0 0.00 0.00 0.00 41 1003.0
20260504234003 69 223 5.2 11.3 0.00 0.00 0.00 41 1003.0
20260504233503 69 225 6.1 16.5 0.00 0.00 0.00 41 1002.9
20260504233003 69 236 7.8 17.4 0.00 0.00 0.00 41 1002.9
20260504232503 69 237 8.7 19.1 0.00 0.00 0.00 40 1003.0
20260504232003 70 235 9.6 20.0 0.00 0.00 0.00 41 1003.0
20260504231503 70 237 9.6 20.9 0.00 0.00 0.00 42 1003.0
20260504231213 70 237 9.6 20.9 0.00 0.00 0.00 43 1003.1
20260504230503 70 241 7.8 17.4 0.00 0.00 0.00 44 1003.0
20260504230005 69 237 8.7 17.4 0.00 0.00 0.00 44 1003.2
20260504225506 69 233 8.7 17.4 0.00 0.00 0.00 44 1003.2
20260504225004 69 233 8.7 15.6 0.00 0.00 0.00 43 1003.2
20260504224503 69 236 7.8 16.5 0.00 0.00 0.00 44 1003.3
20260504224215 69 239 7.8 16.5 0.00 0.00 0.00 44 1003.2
20260504223503 70 244 8.7 17.4 0.00 0.00 0.00 43 1003.1
20260504223215 70 244 9.6 17.4 0.00 0.00 0.00 42 1003.2
20260504222505 70 237 8.7 19.1 0.00 0.00 0.00 42 1003.1
20260504222003 70 238 7.8 19.1 0.00 0.00 0.00 41 1003.2
20260504221503 70 233 10.4 22.6 0.00 0.00 0.00 40 1003.1
20260504221003 70 229 10.4 22.6 0.00 0.00 0.00 39 1003.2
20260504220712 71 227 9.6 20.9 0.00 0.00 0.00 38 1003.1
20260504220003 71 234 9.6 16.5 0.00 0.00 0.00 36 1003.0
20260504215505 71 236 10.4 17.4 0.00 0.00 0.00 36 1003.0
20260504215003 71 235 10.4 20.9 0.00 0.00 0.00 35 1003.0
20260504214714 71 231 11.3 20.9 0.00 0.00 0.00 36 1003.0
20260504214003 71 229 13.0 26.9 0.00 0.00 0.00 36 1003.0
20260504213504 71 235 11.3 26.9 0.00 0.00 0.00 36 1003.2
20260504213003 72 242 10.4 23.5 0.00 0.00 0.00 36 1003.0
20260504212503 72 238 10.4 23.5 0.00 0.00 0.00 36 1003.1
20260504212003 71 235 9.6 19.1 0.00 0.00 0.00 36 1002.9
20260504211504 71 228 9.6 20.0 0.00 0.00 0.00 40 1003.1
20260504211003 71 219 8.7 20.0 0.00 0.00 0.00 41 1003.2
20260504210714 71 218 7.8 17.4 0.00 0.00 0.00 42 1003.3
20260504210005 71 229 8.7 17.4 0.00 0.00 0.00 43 1003.3
20260504205503 71 222 9.6 22.6 0.00 0.00 0.00 42 1003.3
20260504205005 71 221 11.3 22.6 0.00 0.00 0.00 43 1003.3
20260504204507 71 227 12.2 20.9 0.00 0.00 0.00 43 1003.5
20260504204003 71 232 10.4 20.9 0.00 0.00 0.00 42 1003.7
20260504203503 71 231 8.7 17.4 0.00 0.00 0.00 43 1003.6
20260504203003 71 218 9.6 24.3 0.00 0.00 0.00 44 1003.5
20260504202503 71 217 11.3 24.3 0.00 0.00 0.00 43 1003.5
20260504202214 71 222 10.4 24.3 0.00 0.00 0.00 43 1003.7
20260504201713 71 230 9.6 22.6 0.00 0.00 0.00 43 1003.7
20260504201003 70 228 8.7 20.0 0.00 0.00 0.00 43 1003.7
20260504200503 70 227 8.7 20.0 0.00 0.00 0.00 44 1003.8
20260504200003 71 227 8.7 19.1 0.00 0.00 0.00 43 1003.8
20260504195713 71 227 9.6 20.0 0.00 0.00 0.00 44 1004.0
20260504195214 71 223 9.6 20.0 0.00 0.00 0.00 45 1004.0
20260504194505 71 213 8.7 20.9 0.00 0.00 0.00 43 1004.0
20260504194214 71 213 9.6 20.9 0.00 0.00 0.00 46 1004.1
20260504193503 70 220 9.6 20.9 0.00 0.00 0.00 45 1004.3
20260504193006 70 221 9.6 19.1 0.00 0.00 0.00 46 1004.4
20260504192503 70 229 8.7 19.1 0.00 0.00 0.00 45 1004.3
20260504192005 70 231 10.4 25.2 0.00 0.00 0.00 46 1004.6
20260504191503 70 230 11.3 25.2 0.00 0.00 0.00 45 1004.6
20260504191214 70 230 11.3 25.2 0.00 0.00 0.00 46 1004.7
20260504190503 70 236 10.4 20.9 0.00 0.00 0.00 45 1004.7
20260504190003 69 232 13.0 20.9 0.00 0.00 0.00 45 1004.9
20260504185504 69 233 13.0 28.7 0.00 0.00 0.00 47 1004.8
20260504185003 69 229 13.0 28.7 0.00 0.00 0.00 46 1004.9
20260504184505 69 229 12.2 24.3 0.00 0.00 0.00 45 1004.8
20260504184003 69 232 11.3 23.5 0.00 0.00 0.00 46 1005.0
20260504183503 69 228 10.4 22.6 0.00 0.00 0.00 47 1005.1
20260504183004 69 228 11.3 23.5 0.00 0.00 0.00 46 1005.0
20260504182713 69 224 10.4 23.5 0.00 0.00 0.00 48 1005.1
20260504182214 68 223 9.6 23.5 0.00 0.00 0.00 48 1005.2
20260504181503 68 227 11.3 20.9 0.00 0.00 0.00 50 1005.2
20260504181003 68 231 12.2 25.2 0.00 0.00 0.00 50 1005.2
20260504180712 68 234 13.0 25.2 0.00 0.00 0.00 48 1005.4
20260504180003 68 233 11.3 22.6 0.00 0.00 0.00 48 1005.5
20260504175505 68 231 8.7 22.6 0.00 0.00 0.00 50 1005.6
20260504175003 68 243 9.6 20.0 0.00 0.00 0.00 50 1005.6
20260504174503 67 245 10.4 23.5 0.00 0.00 0.00 50 1005.7
20260504174003 67 244 10.4 23.5 0.00 0.00 0.00 50 1005.7
20260504173505 67 241 11.3 20.9 0.00 0.00 0.00 51 1005.7
20260504173003 66 242 12.2 25.2 0.00 0.00 0.00 51 1005.7
20260504172504 66 239 11.3 24.3 0.00 0.00 0.00 51 1005.8
20260504172005 66 234 10.4 23.5 0.00 0.00 0.00 52 1005.9
20260504171505 66 230 12.2 27.8 0.00 0.00 0.00 53 1005.8
20260504171003 65 227 13.0 27.8 0.00 0.00 0.00 53 1005.8
20260504170714 65 230 13.9 27.8 0.00 0.00 0.00 52 1005.9
20260504150503 62 227 13.0 34.8 0.00 0.00 0.00 54 1006.8
20260504141003 60 226 14.8 32.2 0.00 0.00 0.00 55 1006.4
20260504140505 60 224 14.8 28.7 0.00 0.00 0.00 54 1006.5
20260504130503 58 219 12.2 26.9 0.00 0.00 0.00 56 1006.8
20260504110503 51 203 5.2 10.4 0.00 0.00 0.00 64 1007.1
20260504100503 51 207 5.2 12.2 0.00 0.00 0.00 63 1006.8